• Em Portugal
  • Lista de países
  • Para 7 dias
  • Temperatura da água
  • Mapas de satélite
  • Mapa do tempo
  • Widgets de tempo
  • user-avatar
    Iniciar Sessão

    Previsão horária em Zahla

    Hoje, 21 Maio, Segunda-feira

    Tempo Temperatura Precipitação Vento Pressão Humidade
    00:00 +23°C° 0 mm 1 m/s 674 mmHg 39%
    01:00 +23°C° 0 mm 1 m/s 673 mmHg 39%
    02:00 +22°C° 0 mm 1 m/s 673 mmHg 38%
    03:00 +22°C° 0 mm 1 m/s 674 mmHg 40%
    04:00 +22°C° 0 mm 1 m/s 674 mmHg 42%
    05:00 +21°C° 0 mm 1 m/s 674 mmHg 43%
    06:00 +23°C° 0 mm 1 m/s 675 mmHg 38%
    07:00 +25°C° 0 mm 1 m/s 675 mmHg 32%
    08:00 +27°C° 0 mm 2 m/s 676 mmHg 27%
    09:00 +28°C° 0 mm 3 m/s 676 mmHg 24%
    10:00 +29°C° 0 mm 3 m/s 676 mmHg 22%
    11:00 +30°C° 0 mm 4 m/s 676 mmHg 20%
    12:00 +30°C° 0 mm 4 m/s 676 mmHg 21%
    13:00 +30°C° 0 mm 4 m/s 676 mmHg 21%
    14:00 +30°C° 0 mm 4 m/s 676 mmHg 21%
    15:00 +29°C° 0,1 mm 4 m/s 676 mmHg 23%
    16:00 +29°C° 0,1 mm 3 m/s 675 mmHg 25%
    17:00 +28°C° 0,1 mm 3 m/s 675 mmHg 26%
    18:00 +27°C° 0 mm 2 m/s 675 mmHg 31%
    19:00 +25°C° 0 mm 2 m/s 675 mmHg 36%
    20:00 +24°C° 0 mm 1 m/s 675 mmHg 40%
    21:00 +24°C° 0 mm 1 m/s 675 mmHg 39%
    22:00 +24°C° 0 mm 1 m/s 675 mmHg 38%
    23:00 +23°C° 0 mm 1 m/s 675 mmHg 37%

    Amanhã, 22 Maio, Terça-feira

    Tempo Temperatura Precipitação Vento Pressão Humidade
    00:00 +23°C° 0 mm 1 m/s 675 mmHg 37%
    01:00 +23°C° 0 mm 1 m/s 675 mmHg 36%
    02:00 +23°C° 0 mm 1 m/s 675 mmHg 36%
    03:00 +23°C° 0 mm 2 m/s 675 mmHg 35%
    04:00 +23°C° 0 mm 2 m/s 675 mmHg 34%
    05:00 +24°C° 0 mm 2 m/s 676 mmHg 34%
    06:00 +25°C° 0 mm 2 m/s 676 mmHg 32%
    07:00 +26°C° 0 mm 2 m/s 677 mmHg 31%
    08:00 +27°C° 0 mm 2 m/s 677 mmHg 29%
    09:00 +27°C° 0,1 mm 2 m/s 677 mmHg 29%
    10:00 +28°C° 0,1 mm 2 m/s 677 mmHg 29%
    11:00 +28°C° 0,1 mm 3 m/s 677 mmHg 29%
    12:00 +29°C° 0,1 mm 3 m/s 677 mmHg 27%
    13:00 +29°C° 0,1 mm 4 m/s 677 mmHg 26%
    14:00 +29°C° 0,1 mm 5 m/s 677 mmHg 24%
    15:00 +29°C° 0 mm 5 m/s 677 mmHg 24%
    16:00 +29°C° 0 mm 5 m/s 676 mmHg 24%
    17:00 +29°C° 0 mm 5 m/s 676 mmHg 24%
    18:00 +28°C° 0 mm 4 m/s 676 mmHg 25%
    19:00 +27°C° 0 mm 3 m/s 675 mmHg 27%
    20:00 +25°C° 0 mm 2 m/s 675 mmHg 28%
    21:00 +25°C° 0 mm 2 m/s 675 mmHg 29%
    22:00 +24°C° 0 mm 2 m/s 674 mmHg 30%
    23:00 +23°C° 0 mm 1 m/s 674 mmHg 32%

    Depois de amanhã, 23 Maio, Quarta-feira

    Tempo Temperatura Precipitação Vento Pressão Humidade
    00:00 +23°C° 0 mm 1 m/s 674 mmHg 32%
    01:00 +22°C° 0 mm 1 m/s 674 mmHg 33%
    02:00 +22°C° 0 mm 1 m/s 673 mmHg 34%
    03:00 +22°C° 0 mm 1 m/s 673 mmHg 37%
    04:00 +21°C° 0 mm 1 m/s 673 mmHg 39%
    05:00 +21°C° 0 mm 1 m/s 673 mmHg 42%
    06:00 +23°C° 0 mm 2 m/s 674 mmHg 37%
    07:00 +25°C° 0 mm 2 m/s 674 mmHg 32%
    08:00 +27°C° 0 mm 3 m/s 675 mmHg 27%
    09:00 +27°C° 0 mm 3 m/s 675 mmHg 26%
    10:00 +28°C° 0 mm 4 m/s 675 mmHg 25%
    11:00 +29°C° 0 mm 5 m/s 675 mmHg 24%
    12:00 +29°C° 0 mm 5 m/s 675 mmHg 25%
    13:00 +28°C° 0 mm 5 m/s 675 mmHg 26%
    14:00 +28°C° 0 mm 5 m/s 674 mmHg 27%
    15:00 +27°C° 0 mm 5 m/s 674 mmHg 30%
    16:00 +26°C° 0 mm 5 m/s 674 mmHg 33%
    17:00 +25°C° 0 mm 4 m/s 673 mmHg 37%
    18:00 +23°C° 0 mm 4 m/s 673 mmHg 44%
    19:00 +22°C° 0 mm 3 m/s 673 mmHg 50%
    20:00 +20°C° 0 mm 3 m/s 673 mmHg 57%
    21:00 +20°C° 0 mm 3 m/s 673 mmHg 59%
    22:00 +19°C° 0 mm 2 m/s 673 mmHg 61%
    23:00 +19°C° 0 mm 2 m/s 673 mmHg 63%

    24 Maio, Quinta-feira

    Tempo Temperatura Precipitação Vento Pressão Humidade
    00:00 +18°C° 0 mm 2 m/s 673 mmHg 60%
    01:00 +18°C° 0 mm 2 m/s 672 mmHg 58%
    02:00 +18°C° 0 mm 2 m/s 672 mmHg 55%
    03:00 +18°C° 0 mm 2 m/s 672 mmHg 56%
    04:00 +18°C° 0 mm 2 m/s 672 mmHg 57%
    05:00 +17°C° 0 mm 2 m/s 672 mmHg 57%
    06:00 +19°C° 0 mm 2 m/s 672 mmHg 52%
    07:00 +21°C° 0 mm 3 m/s 673 mmHg 47%
    08:00 +24°C° 0 mm 3 m/s 673 mmHg 41%
    09:00 +25°C° 0 mm 3 m/s 673 mmHg 40%
    10:00 +26°C° 0 mm 4 m/s 673 mmHg 38%
    11:00 +27°C° 0 mm 4 m/s 673 mmHg 36%
    12:00 +27°C° 0 mm 4 m/s 673 mmHg 35%
    13:00 +27°C° 0 mm 4 m/s 673 mmHg 34%
    14:00 +27°C° 0 mm 5 m/s 673 mmHg 33%
    15:00 +27°C° 0 mm 4 m/s 672 mmHg 33%
    16:00 +26°C° 0 mm 4 m/s 672 mmHg 33%
    17:00 +26°C° 0 mm 4 m/s 672 mmHg 32%
    18:00 +23°C° 0 mm 4 m/s 672 mmHg 37%
    19:00 +22°C° 0 mm 3 m/s 671 mmHg 41%
    20:00 +21°C° 0 mm 3 m/s 671 mmHg 45%
    21:00 +20°C° 0 mm 3 m/s 671 mmHg 45%
    22:00 +20°C° 0 mm 3 m/s 671 mmHg 45%
    23:00 +19°C° 0 mm 3 m/s 671 mmHg 46%

    25 Maio, Sexta-feira

    Tempo Temperatura Precipitação Vento Pressão Humidade
    00:00 +19°C° 0 mm 3 m/s 671 mmHg 45%
    01:00 +18°C° 0 mm 3 m/s 670 mmHg 45%
    02:00 +18°C° 0 mm 3 m/s 670 mmHg 45%
    03:00 +18°C° 0 mm 2 m/s 670 mmHg 43%
    04:00 +18°C° 0 mm 2 m/s 670 mmHg 42%
    05:00 +18°C° 0 mm 2 m/s 670 mmHg 41%
    06:00 +20°C° 0 mm 2 m/s 670 mmHg 37%
    07:00 +22°C° 0 mm 3 m/s 671 mmHg 33%
    08:00 +25°C° 0 mm 3 m/s 671 mmHg 28%
    09:00 +26°C° 0 mm 4 m/s 671 mmHg 28%
    10:00 +27°C° 0 mm 4 m/s 671 mmHg 28%
    11:00 +28°C° 0 mm 5 m/s 672 mmHg 28%
    12:00 +28°C° 0 mm 5 m/s 671 mmHg 27%
    13:00 +28°C° 0 mm 6 m/s 671 mmHg 26%
    14:00 +28°C° 0 mm 6 m/s 671 mmHg 26%
    15:00 +27°C° 0 mm 5 m/s 671 mmHg 28%
    16:00 +26°C° 0 mm 5 m/s 671 mmHg 29%
    17:00 +26°C° 0 mm 5 m/s 670 mmHg 31%
    18:00 +25°C° 0 mm 4 m/s 670 mmHg 35%
    19:00 +24°C° 0 mm 3 m/s 670 mmHg 38%
    20:00 +21°C° 0 mm 2 m/s 670 mmHg 41%
    21:00 +21°C° 0,1 mm 2 m/s 670 mmHg 42%
    22:00 +21°C° 0,1 mm 2 m/s 670 mmHg 42%
    23:00 +21°C° 0,1 mm 1 m/s 670 mmHg 42%

    26 Maio, Sábado

    Tempo Temperatura Precipitação Vento Pressão Humidade
    00:00 +20°C° 0 mm 2 m/s 669 mmHg 46%
    01:00 +19°C° 0 mm 2 m/s 669 mmHg 49%
    02:00 +19°C° 0 mm 2 m/s 669 mmHg 52%
    03:00 +20°C° 0,1 mm 1 m/s 669 mmHg 52%
    04:00 +20°C° 0,1 mm 1 m/s 669 mmHg 53%
    05:00 +20°C° 0,1 mm 1 m/s 669 mmHg 53%
    06:00 +20°C° 0,1 mm 2 m/s 670 mmHg 48%
    07:00 +23°C° 0,1 mm 2 m/s 670 mmHg 44%
    08:00 +24°C° 0,1 mm 3 m/s 671 mmHg 40%
    09:00 +25°C° 0,1 mm 4 m/s 671 mmHg 38%
    10:00 +26°C° 0,1 mm 4 m/s 671 mmHg 36%
    11:00 +27°C° 0,1 mm 5 m/s 671 mmHg 34%
    12:00 +28°C° 0,2 mm 5 m/s 671 mmHg 35%
    13:00 +28°C° 0,2 mm 5 m/s 671 mmHg 36%
    14:00 +28°C° 0,2 mm 5 m/s 670 mmHg 37%
    15:00 +27°C° 0,1 mm 4 m/s 670 mmHg 40%
    16:00 +26°C° 0,1 mm 4 m/s 670 mmHg 43%
    17:00 +25°C° 0,1 mm 3 m/s 670 mmHg 46%
    18:00 +24°C° 0 mm 3 m/s 670 mmHg 53%
    19:00 +23°C° 0 mm 2 m/s 670 mmHg 60%
    20:00 +20°C° 0 mm 2 m/s 670 mmHg 67%
    21:00 +20°C° 0 mm 2 m/s 670 mmHg 71%
    22:00 +20°C° 0 mm 1 m/s 670 mmHg 75%
    23:00 +19°C° 0 mm 1 m/s 670 mmHg 79%
    Mostrar mais